This is the latest recevied weather packets stored in our database for station/object YT1XN-8. If no packets are shown the sender has not sent any weather packets the latest 10 day(s).
| Time | Temp. | Humidity | Pressure | Rain* | Wind** | Luminosity | Snow |
|---|---|---|---|---|---|---|---|
| 1777182221 | 11.67° C | 71% | 1016 hPa | 0 mm | - | - | - |
| 1777181561 | 11.67° C | 70% | 1015.8 hPa | 0 mm | - | - | - |
| 1777180901 | 11.67° C | 70% | 1015.6 hPa | 0 mm | - | - | - |
| 1777180241 | 12.22° C | 68% | 1015.4 hPa | 0 mm | - | - | - |
| 1777179581 | 12.22° C | 69% | 1015.3 hPa | 0 mm | - | - | - |
| 1777178921 | 12.22° C | 71% | 1015.1 hPa | 0 mm | - | - | - |
| 1777178261 | 11.67° C | 68% | 1015.1 hPa | 0 mm | - | - | - |
| 1777177844 | 11.11° C | 70% | 1014.8 hPa | 0 mm | - | - | - |
| 1777177601 | 11.11° C | 70% | 1014.9 hPa | 0 mm | - | - | - |
| 1777177244 | 10.56° C | 70% | 1014.8 hPa | 0 mm | - | - | - |
| 1777176941 | 10.56° C | 71% | 1014.8 hPa | 0 mm | - | - | - |
| 1777176281 | 10° C | 70% | 1014.7 hPa | 0 mm | - | - | - |
| 1777175621 | 10° C | 71% | 1014.8 hPa | 0 mm | - | - | - |
| 1777174961 | 10° C | 70% | 1014.6 hPa | 0 mm | - | - | - |
| 1777174845 | 10° C | 70% | 1014.6 hPa | 0 mm | - | - | - |
| 1777174301 | 10.56° C | 70% | 1014.6 hPa | 0 mm | - | - | - |
| 1777174244 | 10.56° C | 70% | 1014.6 hPa | 0 mm | - | - | - |
| 1777173641 | 10.56° C | 70% | 1014.4 hPa | 0 mm | - | - | - |
| 1777172981 | 10.56° C | 69% | 1014.2 hPa | 0 mm | - | - | - |
| 1777172444 | 10.56° C | 69% | 1014.1 hPa | 0 mm | - | - | - |
| 1777172321 | 10.56° C | 69% | 1014.2 hPa | 0 mm | - | - | - |
| 1777171662 | 11.11° C | 68% | 1014 hPa | 0 mm | - | - | - |
| 1777171245 | 11.11° C | 68% | 1013.9 hPa | 0 mm | - | - | - |
| 1777171002 | 11.11° C | 68% | 1014 hPa | 0 mm | - | - | - |
| 1777170645 | 11.11° C | 68% | 1013.9 hPa | 0 mm | - | - | - |
* Rain latest hour (hover to see other rain measurements)
** Current wind speed in m/s (hover to see current wind gust speed)